Tracking 30258 objects as of 19-Feb-2025
HD Live streaming from Space Station
objects crossing your sky now

COSMOS 1823 DEB

Track COSMOS 1823 DEB now!
10-day predictions


NORAD ID: 29357
Int'l Code: 1987-020DY
Perigee: 1,156.8 km
Apogee: 1,496.6 km
Inclination: 73.8 °
Period: 112.0 minutes
Semi major axis: 7697 km
RCS: 0.003 m2 (small)
Launch date: February 20, 1987
Source: Commonwealth of Independent States (former USSR) (CIS)
Launch site: PLESETSK MISSILE AND SPACE COMPLEX (PKMTR)

Note: This is SATELLITE DEBRIS
Your satellite tracking list
Your tracking list is empty




NASA's NSSDC Master Catalog

Two Line Element Set (TLE):
1 29357U 87020DY  25048.38586568  .00000102  00000-0  44206-3 0  9993
2 29357  73.7899  89.5850 0220696 194.8826 177.1672 12.85464047539963
Source of the keplerian elements: AFSPC